TimeEDT,TemperatureF,Dew PointF,Humidity,Sea Level PressureIn,VisibilityMPH,Wind Direction,Wind SpeedMPH,Gust SpeedMPH,PrecipitationIn,Events,Conditions,WindDirDegrees,DateUTC
12:26 AM,66.2,64.4,94,29.89,1.5,WSW,3.5,-,0.00,,Overcast,240,2013-04-15 04:26:00
12:30 AM,66.2,64.4,94,29.89,0.8,SSW,5.8,-,0.00,,Overcast,210,2013-04-15 04:30:00
12:39 AM,66.2,64.4,94,29.89,0.5,Calm,Calm,-,0.00,Fog,Fog,0,2013-04-15 04:39:00
12:48 AM,66.2,64.4,94,29.89,1.0,SSW,6.9,-,0.00,,Mist,210,2013-04-15 04:48:00
12:53 AM,66.0,64.0,93,29.88,1.5,South,5.8,-,0.00,,Overcast,190,2013-04-15 04:53:00
12:57 AM,66.2,64.4,94,29.87,3.0,South,8.1,-,N/A,,Overcast,190,2013-04-15 04:57:00
1:21 AM,66.2,64.4,94,29.85,10.0,SSW,13.8,18.4,N/A,,Mostly Cloudy,200,2013-04-15 05:21:00
1:38 AM,66.2,64.4,94,29.83,10.0,South,8.1,-,N/A,,Scattered Clouds,190,2013-04-15 05:38:00
1:53 AM,66.9,64.9,93,29.87,10.0,NW,10.4,-,N/A,,Mostly Cloudy,320,2013-04-15 05:53:00
2:08 AM,66.2,64.4,94,29.86,10.0,NNW,9.2,-,N/A,,Scattered Clouds,330,2013-04-15 06:08:00
2:28 AM,66.2,64.4,94,29.89,10.0,NNW,13.8,19.6,N/A,,Mostly Cloudy,340,2013-04-15 06:28:00
2:42 AM,66.2,64.4,94,29.90,10.0,NNW,8.1,-,N/A,,Mostly Cloudy,330,2013-04-15 06:42:00
2:50 AM,66.2,64.4,94,29.91,10.0,WNW,5.8,-,N/A,,Scattered Clouds,300,2013-04-15 06:50:00
2:53 AM,66.0,64.0,93,29.91,10.0,WNW,5.8,-,N/A,,Scattered Clouds,300,2013-04-15 06:53:00
3:53 AM,64.9,63.0,93,29.92,2.5,Calm,Calm,-,N/A,,Partly Cloudy,0,2013-04-15 07:53:00
3:57 AM,64.4,62.6,94,29.92,0.8,Calm,Calm,-,N/A,,Clear,0,2013-04-15 07:57:00
4:05 AM,64.4,62.6,94,29.92,0.5,Calm,Calm,-,N/A,Fog,Fog,0,2013-04-15 08:05:00
4:25 AM,62.6,60.8,94,29.92,0.5,Calm,Calm,-,N/A,Fog,Fog,0,2013-04-15 08:25:00
4:32 AM,62.6,60.8,94,29.92,0.2,Calm,Calm,-,N/A,Fog,Fog,0,2013-04-15 08:32:00
4:53 AM,62.1,61.0,96,29.92,0.2,Calm,Calm,-,N/A,Fog,Fog,0,2013-04-15 08:53:00
5:02 AM,60.8,60.8,100,29.93,0.5,Calm,Calm,-,N/A,Fog,Fog,0,2013-04-15 09:02:00
5:11 AM,60.8,59.0,94,29.93,0.2,Calm,Calm,-,N/A,Fog,Fog,0,2013-04-15 09:11:00
5:19 AM,60.8,59.0,94,29.93,0.8,Calm,Calm,-,N/A,,Mist,0,2013-04-15 09:19:00
5:33 AM,60.8,59.0,94,29.93,0.2,Calm,Calm,-,N/A,Fog,Fog,0,2013-04-15 09:33:00
5:50 AM,60.8,59.0,94,29.93,0.8,Calm,Calm,-,N/A,,Mist,0,2013-04-15 09:50:00
5:51 AM,60.1,59.0,96,29.93,0.8,Calm,Calm,-,N/A,,Mist,0,2013-04-15 09:51:00
6:00 AM,60.8,59.0,94,29.93,1.2,Calm,Calm,-,N/A,,Scattered Clouds,0,2013-04-15 10:00:00
6:10 AM,60.8,60.8,100,29.94,3.0,Calm,Calm,-,N/A,,Partly Cloudy,0,2013-04-15 10:10:00
6:21 AM,62.6,60.8,94,29.94,2.0,Calm,Calm,-,N/A,,Clear,0,2013-04-15 10:21:00
6:28 AM,62.6,60.8,94,29.94,1.0,SSW,3.5,-,N/A,,Mist,210,2013-04-15 10:28:00
6:38 AM,60.8,60.8,100,29.95,1.2,Calm,Calm,-,N/A,,Partly Cloudy,0,2013-04-15 10:38:00
6:46 AM,60.8,60.8,100,29.95,5.0,SW,3.5,-,N/A,,Scattered Clouds,220,2013-04-15 10:46:00
6:53 AM,61.0,60.1,97,29.96,5.0,SW,3.5,-,N/A,,Scattered Clouds,220,2013-04-15 10:53:00
7:53 AM,62.1,61.0,96,29.98,8.0,Calm,Calm,-,N/A,,Clear,0,2013-04-15 11:53:00
8:53 AM,66.0,63.0,90,30.00,10.0,WSW,3.5,-,N/A,,Clear,240,2013-04-15 12:53:00
9:53 AM,71.1,63.0,75,30.02,10.0,WNW,4.6,-,N/A,,Clear,300,2013-04-15 13:53:00
10:53 AM,75.9,60.1,58,30.03,10.0,West,5.8,-,N/A,,Clear,260,2013-04-15 14:53:00
11:53 AM,79.0,59.0,50,30.03,10.0,North,8.1,-,N/A,,Clear,350,2013-04-15 15:53:00
12:53 PM,80.1,61.0,52,30.03,10.0,NNW,9.2,-,N/A,,Clear,340,2013-04-15 16:53:00
1:53 PM,82.9,62.1,49,30.03,10.0,North,6.9,-,N/A,,Clear,10,2013-04-15 17:53:00
2:53 PM,78.1,64.9,64,30.03,10.0,ENE,12.7,-,N/A,,Scattered Clouds,60,2013-04-15 18:53:00
3:53 PM,73.9,64.0,71,30.02,10.0,ENE,15.0,-,N/A,,Clear,60,2013-04-15 19:53:00
4:53 PM,72.0,63.0,73,30.03,10.0,ENE,12.7,18.4,N/A,,Clear,60,2013-04-15 20:53:00
5:53 PM,72.0,63.0,73,30.04,10.0,ENE,8.1,-,N/A,,Clear,70,2013-04-15 21:53:00
6:53 PM,71.1,61.0,70,30.05,10.0,ENE,10.4,-,N/A,,Clear,70,2013-04-15 22:53:00
7:53 PM,69.1,61.0,75,30.07,10.0,ENE,6.9,-,N/A,,Clear,60,2013-04-15 23:53:00
8:53 PM,66.9,62.1,84,30.08,10.0,ENE,3.5,-,N/A,,Clear,60,2013-04-16 00:53:00
9:53 PM,66.9,63.0,87,30.11,10.0,ENE,3.5,-,N/A,,Clear,70,2013-04-16 01:53:00
10:21 PM,66.2,62.6,88,30.12,10.0,NE,3.5,-,N/A,,Partly Cloudy,50,2013-04-16 02:21:00
10:44 PM,66.2,62.6,88,30.13,10.0,NE,6.9,-,N/A,,Mostly Cloudy,50,2013-04-16 02:44:00
10:53 PM,66.0,63.0,90,30.14,10.0,ENE,5.8,-,N/A,,Overcast,60,2013-04-16 02:53:00
11:53 PM,66.9,64.0,90,30.14,10.0,Calm,Calm,-,N/A,,Overcast,0,2013-04-16 03:53:00